Location: Bratislava
(48.1500°N, 17.1170°E)
Time: 17:03:12
(UTC+02:00)

Envisat - Visible Passes

Search period start: 10 May 2026 00:00
Search period end: 20 May 2026 00:00
Orbit: 761 x 762 km, 98.4° (Epoch: 10 May)

Date Brightness Start Highest point End Pass type
(mag) Time Alt. Az. Time Alt. Az. Time Alt. Az.
10 May 5.0 02:27:09 10° NE 02:30:58 21° E 02:34:45 10° SE visible
10 May 3.2 04:05:17 10° N 04:10:16 58° WNW 04:15:00 11° SSW visible
11 May 3.2 03:27:24 10° NNE 03:32:28 69° ESE 03:36:47 14° S visible
12 May 4.4 02:49:55 10° NNE 02:54:29 33° E 02:58:35 12° SSE visible
12 May 3.8 04:28:48 10° N 04:33:26 37° WNW 04:38:04 10° SW visible
13 May 5.3 02:13:13 10° NE 02:16:16 16° E 02:19:18 10° SE visible
13 May 3.0 03:50:42 10° NNE 03:55:47 76° WNW 04:00:31 12° SSW visible
14 May 3.6 03:12:57 10° NNE 03:17:55 52° E 03:22:17 13° S visible
15 May 4.8 02:35:41 10° NE 02:39:50 25° E 02:43:58 10° SSE visible
15 May 3.4 04:14:08 10° N 04:19:01 49° WNW 04:23:51 10° SW visible
16 May 5.5 01:59:47 10° ENE 02:01:32 12° E 02:03:18 10° ESE visible
16 May 3.0 03:36:10 10° NNE 03:41:16 82° ESE 03:46:00 12° SSW visible
17 May 4.1 02:58:35 10° NNE 03:03:20 39° E 03:07:47 11° SSE visible
18 May 5.1 02:21:36 10° NE 02:25:10 19° E 02:28:43 10° SE visible
18 May 3.1 03:59:31 10° N 04:04:33 64° WNW 04:09:32 10° SSW visible
19 May 3.4 03:21:41 10° NNE 03:26:44 62° ESE 03:31:29 11° S visible
